ONEWEB-0117, 47263

Orbit data source: Space-Track

ONEWEB-0117, 47263 is a payload satellite owned by One Web (UK) in LEO that was launched on Fri, 18 Dec 2020 UTC via a SOYUZ-2-1B launch vehicle from the Vostochny Cosmodrome (VOSTO). Payload-class satellites include a variety of spacecraft equipped with specific instruments for various scientific and technological missions. These include communications satellites like Starlink; space stations such as the ISS; scientific satellites like the Hubble; Earth observation satellites from companies like Planet Labs, Umbra, and HawkEye 360; GPS; miniature CubeSats for education and research; and military/defense satellites.

Loading next visibility...
Identifier
47263, 2020-100F
Orbit
LEO
Country
Flag of UKUK
Related business
Manufacturer
One Web
Mission
Operational Commercial Communications
Bus & Motor
ARROW, Unknown motor
Mass
148 kg wet, ~140 kg dry
Launch date (UTC)
2020-12-18 (5 years ago)
Launch vehicle
SOYUZ-2-1B
Launch site
Vostochny Cosmodrome (VOSTO)
Object type
Payload
Rocket body
Debris
Shape & HBR
Trap Box + 2 Pan, 6.7 m
Radar Cross Section
3.464 m², Large (>1 m²)

Expand to show TLE details & history
Last TLE update: 11 hours ago

TLE from 11 hours ago
0 ONEWEB-0117
1 47263U 20100F   26095.49178736  .00000308  00000-0  82001-3 0  9997
2 47263  87.9015   5.0854 0001808  78.7550 281.3782 13.12446457254992
Epoch: 2026-04-05T11:48Z
TLE epoch observation values (Epoch: 2026-04-05T11:48:10.427Z)
Latitude
-0.00001°
Longitude
-5.75449°
Altitude
1,216.33 km
Speed
7.246 km/s
True Right ascension
00h 20m 20s
True Declination
0° 00' 00"
Sunlit
Object was in daylight at epoch
Visualization orbit readout
Latitude
Unknown
Longitude
Unknown
Altitude
Unknown
Speed
Unknown
Apparent Right ascension
Unknown
Apparent Declination
Unknown
Sunlit
N/A
Visualization observer readout
Local Sidereal Time
04:52:38
Azimuth
Unknown
Elevation
Unknown
Doppler factor
Unknown
Orbital elements
Apogee altitude
1,212.199 km
Perigee altitude
1,209.454 km
Semi-major axis
7,588.964 km
Eccentricity
0.00018
Inclination
87.9015°
RAAN
5.0854°
Arg. of periapsis
78.755°
True anomaly
281.35789°
Mean anomaly
281.3782°
Eccentric anomaly
281.36804°
Mean motion
3.28299 °/min
Orbital period
109.66 mins
BSTAR
0.00082001
Loading maneuver chart data...
Computing Atmospheric mass density...
Loading historical data...
Loading historical data...
Loading historical data...
Loading historical data...
Loading historical data...
Loading historical data...
Loading historical data...

Documentation

Showing up to 5 results
|